Location: *
(57.8420°S, 159.8600°W)
Time: 05:15:10
(UTC+00:00)

Cosmos 1689 Rocket - Pass Details

Date: 18 May 2021
Orbit: 344 x 354 km, 97.5° (Epoch: 20 June)

Event Time Altitude Azimuth Distance (km) Brightness Sun altitude
Rises 03:50:50 0° 45° (NE) 2,207 5.7 -10.7°
Reaches altitude 10° 03:52:56 10° 58° (ENE) 1,370 4.5 -11.0°
Maximum altitude 03:55:25 26° 116° (ESE) 790 3.0 -11.3°
Drops below altitude 10° 03:57:56 10° 175° (S) 1,392 4.7 -11.6°
Sets 04:00:05 0° 188° (S) 2,252 5.8 -11.9°
